Location: Banios
(43.0451°N, 0.2335°E)
Time: 19:29:02
(UTC+00:00)

A-11 Canister half - Pass Details

Date: 10 December 2021
Orbit: 1516 x 1684 km, 47.2° (Epoch: 23 January)

Event Time Altitude Azimuth Distance (km) Brightness Sun altitude
Exits shadow 04:57:27 11° 221° (SW) 3,622 10.6 -25.1°
Maximum altitude 05:06:21 61° 144° (SE) 1,768 9.4 -23.5°
Drops below altitude 10° 05:15:59 10° 67° (ENE) 3,875 11.9 -21.8°
Sets 05:19:12 0° 65° (ENE) 4,884 12.5 -21.2°
